Home > Weather > Kopervik > Past weeks

Flag for Norway Weather for the Past 2 Weeks in Kopervik, Norway

Now
19 °F

Clear.


Feels Like: 14 °F
Forecast: 30 / 40 °F
Wind: 3 mph from East

Location: Karmoy

Current Time: Feb 15, 2016 at 1:07:05 AM

Latest Report: Feb 14, 2016 at 11:50 PM


Visibility: 10 mi

Pressure: 29.80 "Hg

Humidity: 86%

Dew point: 16 °F

Location of KopervikLocation

Historic Weather in Kopervik — Graph

°F

Kopervik Temperature Yesterday

Maximum temperature yesterday: 36 °F (at 2:50 PM)
Minimum temperature yesterday: 21 °F (at 10:20 PM)
Average temperature yesterday: 29 °F

High & Low Weather Summary for the Past Weeks

 TemperatureHumidityPressure
High46 °F (Feb 1, 1:20 PM)100% (Feb 1, 11:50 AM)30.01 "Hg (Feb 1, 11:50 AM)
Low19 °F (Feb 13, 8:20 AM)35% (Feb 12, 12:20 PM)28.56 "Hg (Feb 8, 7:50 AM)
Average38 °F80%29.30 "Hg
* Reported Jan 30 11:20 PM — Feb 14 11:20 PM, Kopervik, Weather by CustomWeather, © 2016

Note: Actual official high and low records may vary slightly from our data, if they occured in-between our weather recording intervals... More about our weather records

Advertising

Kopervik Weather History for the Previous 24 Hours

 ConditionsComfort  
Time TempWeatherWind HumidityBarometerVisibility
11:20 PM
Sun, Feb 14
23 °FClear.3 mph86%29.80 "Hg10 mi
10:50 PM21 °FClear.3 mph86%29.80 "Hg10 mi
10:20 PM21 °FClear.5 mph86%29.77 "Hg10 mi
9:20 PM27 °FClear.6 mph74%29.77 "Hg10 mi
8:50 PM28 °FClear.5 mph74%29.74 "Hg10 mi
8:20 PM28 °FPassing clouds.7 mph74%29.74 "HgN/A
7:50 PM28 °FPassing clouds.6 mph80%29.71 "HgN/A
7:20 PM30 °FPassing clouds.6 mph75%29.71 "HgN/A
6:50 PM32 °FPassing clouds.6 mph69%29.68 "HgN/A
6:20 PM32 °FPassing clouds.8 mph69%29.68 "HgN/A
5:50 PM34 °FPassing clouds.8 mph70%29.68 "HgN/A
5:20 PM34 °FPartly sunny.10 mph65%29.65 "HgN/A
4:50 PM36 °FPartly sunny.7 mph65%29.65 "HgN/A
4:20 PM36 °FScattered clouds.7 mph60%29.65 "HgN/A
3:50 PM36 °FScattered clouds.6 mph60%29.65 "HgN/A
3:20 PM34 °FScattered clouds.8 mph65%29.62 "HgN/A
2:50 PM36 °FScattered clouds.7 mph56%29.62 "HgN/A
2:20 PM34 °FBroken clouds.7 mph60%29.62 "HgN/A
1:50 PM34 °FBroken clouds.3 mph56%29.62 "HgN/A
1:20 PM34 °FBroken clouds.2 mph56%29.62 "HgN/A
12:50 PM32 °FBroken clouds.3 mph55%29.59 "HgN/A
12:20 PM32 °FBroken clouds.6 mph55%29.59 "HgN/A
11:50 AM34 °FBroken clouds.6 mph51%29.59 "HgN/A
11:20 AM32 °FScattered clouds.6 mph51%29.59 "HgN/A
10:50 AM30 °FScattered clouds.8 mph55%29.56 "HgN/A
10:20 AM28 °FBroken clouds.7 mph59%29.56 "HgN/A
9:50 AM28 °FBroken clouds.5 mph59%29.56 "HgN/A
9:20 AM25 °FSunny.6 mph63%29.53 "Hg10 mi
8:20 AM25 °FOvercast.8 mph69%29.53 "HgN/A
7:50 AM25 °FOvercast.8 mph69%29.50 "HgN/A
7:20 AM25 °FOvercast.8 mph69%29.50 "HgN/A
6:50 AM25 °FOvercast.8 mph69%29.50 "HgN/A
6:20 AM25 °FPassing clouds.10 mph69%29.50 "HgN/A
5:50 AM25 °FCold.12 mph69%29.50 "HgN/A
5:20 AM25 °FCold.9 mph69%29.47 "HgN/A
4:50 AM27 °FChilly.9 mph69%29.47 "HgN/A
4:20 AM27 °FPassing clouds.10 mph69%29.47 "HgN/A
3:50 AM27 °FPassing clouds.10 mph69%29.47 "HgN/A
3:20 AM27 °FOvercast.10 mph69%29.47 "HgN/A
2:50 AM28 °FOvercast.10 mph69%29.47 "HgN/A
2:20 AM28 °FOvercast.10 mph69%29.47 "HgN/A
1:50 AM28 °FOvercast.7 mph69%29.47 "HgN/A
1:20 AM28 °FOvercast.9 mph69%29.47 "HgN/A
Weather by CustomWeather, © 2016

See weather overviewHow to use our weather pages